Location: Hradec Kralove
(50.2170°N, 15.8330°E)
Time: 18:46:29
(UTC+01:00)

Tiros 1 despin weight - Visible Passes

Search period start: 30 January 2023 00:00
Search period end: 09 February 2023 00:00
Orbit: 589 x 636 km, 48.2° (Epoch: 29 January)

Date Brightness Start Highest point End Pass type
(mag) Time Alt. Az. Time Alt. Az. Time Alt. Az.
30 Jan ? 18:35:19 10° SW 18:39:37 44° SSE 18:40:54 35° ESE visible
30 Jan ? 20:16:20 10° W 20:17:51 21° WSW 20:17:51 21° WSW visible
31 Jan ? 18:49:50 10° WSW 18:54:17 57° SSE 18:55:08 48° ESE visible
31 Jan ? 20:31:05 10° W 20:32:05 16° W 20:32:05 16° W visible
01 Feb ? 17:23:43 10° SW 17:27:53 36° SSE 17:31:59 10° E visible
01 Feb ? 19:04:29 10° WSW 19:08:59 66° S 19:09:21 63° SE visible
01 Feb ? 20:45:50 10° W 20:46:18 13° W 20:46:18 13° W visible
02 Feb ? 17:38:05 10° SW 17:42:29 49° SSE 17:46:36 11° E visible
02 Feb ? 19:19:12 10° W 19:23:33 68° SSW 19:23:33 68° SSW visible
03 Feb ? 17:52:39 10° WSW 17:57:08 61° SSE 18:00:48 15° E visible
03 Feb ? 19:33:56 10° W 19:37:44 55° SW 19:37:44 55° SW visible
04 Feb ? 18:07:18 10° WSW 18:11:50 68° S 18:15:00 19° E visible
04 Feb ? 19:48:41 10° W 19:51:56 41° WSW 19:51:56 41° WSW visible
05 Feb ? 18:22:02 10° W 18:26:33 69° S 18:29:13 24° ESE visible
05 Feb ? 20:03:28 10° W 20:06:10 30° WSW 20:06:10 30° WSW visible
06 Feb ? 18:36:46 10° W 18:41:15 62° S 18:43:28 28° ESE visible
06 Feb ? 20:18:21 10° W 20:20:25 21° WSW 20:20:25 21° WSW visible
07 Feb ? 18:51:30 10° W 18:55:53 50° SSW 18:57:47 30° SE visible
07 Feb ? 20:33:30 10° W 20:34:44 15° WSW 20:34:44 15° WSW visible
08 Feb ? 19:06:17 10° W 19:10:28 37° SSW 19:12:09 27° SSE visible
